Vorticity
32 30 14 -9 -2 1 -1 5 3 6 7 2 9 6 8 6 8 4 5 5 6 5 5 5 6 6 9 5 20 46 16 -4 8 6 6 4 3 5 5 4 5 5 5 5 7 6 6 5 4
7 5 1 13 4 6 6 7 4 -0 5 4 7 7 5 5 4 4 6 7 5 5 5 3 3 4 5 25 25 6 11 10 6 2 5 5 5 5 5 5 6 4 8 5 5 5 5 4 4
19 10 12 22 29 11 5 2 7 12 7 7 5 9 6 7 7 6 7 7 9 8 8 7 6 5 7 5 10 5 5 5 5 5 3 4 5 6 6 6 6 6 6 6 8 6 5 7 5
22 3 14 8 9 4 8 8 -3 12 12 9 5 6 8 7 9 7 8 5 3 8 10 14 17 19 -13 5 14 5 5 3 4 6 4 5 7 5 4 4 18 7 5 6 7 6 5 9 7
2 14 -4 7 8 26 7 11 12 4 4 8 8 9 7 8 8 8 4 8 12 7 10 17 26 18 3 5 5 10 6 7 2 4 6 6 4 5 6 5 8 10 4 4 7 7 4 9 6
1 8 11 8 25 -12 16 4 6 11 11 7 6 7 7 6 7 7 5 7 3 16 10 12 12 8 5 5 7 7 -0 5 3 4 7 6 5 2 6 6 3 5 9 6 5 6 7 6 6
8 5 10 9 17 -4 7 4 6 6 12 8 7 6 8 7 8 7 8 5 7 15 10 4 10 7 4 5 6 6 4 5 4 6 7 8 7 6 4 4 5 6 6 6 6 4 5 4 7
9 11 11 -1 7 11 9 9 5 9 15 8 8 8 6 7 9 7 7 8 8 1 25 -9 -7 23 16 9 11 3 4 4 7 6 5 6 6 7 8 4 2 2 5 7 4 4 5 6 7
16 0 14 24 1 3 19 7 6 7 11 11 10 5 9 6 7 9 9 8 7 8 1 7 2 6 8 4 1 7 6 7 6 6 7 6 7 7 6 5 5 4 3 4 9 13 11 14 8
15 -1 5 12 8 0 4 27 8 7 7 13 10 8 7 9 6 7 6 6 7 7 8 5 4 5 5 6 7 6 6 5 7 5 6 6 7 7 6 7 13 12 6 5 4 3 3 15 21
15 54 30 -2 18 21 8 12 10 10 1 4 8 11 8 6 9 5 7 6 6 5 5 5 6 6 6 6 6 5 5 6 8 6 6 4 8 5 3 5 11 5 8 5 5 14 0 8 1
21 18 -3 15 1 17 1 10 13 13 13 3 3 4 9 7 6 8 6 4 6 5 3 4 1 2 6 4 6 10 8 6 5 6 4 2 5 5 5 12 6 3 8 14 13 1 13 -1 7
4 14 9 5 20 -6 10 2 7 9 13 14 12 11 7 6 9 5 5 6 8 5 6 5 5 4 3 3 5 0 3 8 3 5 6 9 1 4 3 10 0 1 6 7 9 10 7 -2 -4
3 -4 5 6 -3 9 3 2 3 9 10 6 5 10 14 19 10 8 9 5 6 6 7 7 6 5 5 7 8 5 5 9 5 6 7 5 8 4 7 8 6 5 6 5 7 5 8 6 12
-8 5 -1 8 3 6 12 4 -1 2 14 17 8 7 7 9 27 12 7 5 7 9 6 4 5 6 6 8 5 10 11 4 4 7 7 7 6 7 6 5 2 3 6 4 3 3 4 6 7
29 9 -7 -3 17 14 -4 2 7 10 0 12 14 13 9 7 7 20 15 12 11 5 7 6 11 5 4 5 9 6 2 5 4 3 4 4 5 6 5 5 5 2 2 1 4 6 7 8 4
18 -4 10 -2 8 12 18 6 6 7 16 4 6 15 11 11 5 6 9 17 16 12 10 9 8 8 12 6 5 6 7 4 4 5 3 2 4 4 5 4 4 4 4 3 5 8 1 5 20
2 4 4 -3 12 11 -4 12 15 4 3 19 7 5 15 10 10 9 6 3 7 9 13 18 15 10 10 8 11 6 5 5 6 5 5 5 4 6 5 4 4 2 3 5 3 4 3 8 3
-1 -3 8 -0 -4 3 0 3 -0 10 1 0 20 9 10 12 12 11 9 9 11 6 5 8 11 16 17 13 11 8 9 10 8 6 7 5 4 4 4 3 5 4 4 4 4 5 5 8 7
6 -7 -0 2 15 11 0 0 -4 33 -1 5 14 12 7 6 1 6 9 13 15 12 15 9 4 4 8 11 16 15 15 13 11 9 9 8 8 8 7 7 6 5 4 5 5 5 4 5 7
-6 -6 3 2 12 7 3 -3 -4 14 -13 10 3 5 8 5 4 2 6 7 5 4 3 7 25 8 7 6 3 3 5 10 12 18 18 7 7 7 7 6 6 7 5 7 6 6 6 5 6
2 26 2 10 2 9 -2 -3 -9 1 -10 21 5 2 -1 13 4 1 -5 1 2 4 8 3 1 10 9 8 9 11 11 6 7 13 29 17 10 7 7 7 7 7 7 7 5 5 5 6 6
9 5 29 13 10 4 -1 -0 -6 -3 -2 16 8 3 7 10 -9 -3 2 -1 1 3 8 11 10 13 14 10 10 11 14 21 12 8 9 10 12 11 6 7 11 11 9 8 10 6 4 4 6
3 0 -0 -3 5 19 -5 14 -9 -6 10 6 11 11 7 -8 -16 1 -1 -1 -2 6 -6 2 12 7 4 2 -2 -4 -6 -1 8 11 12 8 11 10 10 5 5 6 8 9 10 9 11 8 5
-10 -0 8 7 21 18 4 20 -6 -3 5 16 11 5 1 15 64 55 15 4 1 2 0 4 2 3 8 10 11 12 15 10 11 8 4 7 5 7 10 10 8 10 10 7 7 7 10 13 8
2 2 -8 -3 9 3 2 -5 -7 -2 9 -0 14 1 8 19 23 24 -16 46 18 12 -2 -1 3 1 -2 6 -3 -5 15 9 9 8 7 11 10 5 9 12 11 -7 13 8 3 4 7 11 11
-11 2 2 0 19 19 1 -2 -5 16 4 1 7 6 13 6 19 15 9 5 8 -3 6 -1 0 2 -2 -1 4 1 -4 1 -3 17 11 8 9 5 4 6 6 13 2 6 6 10 8 8 8
10 21 -7 4 22 8 1 -1 -9 6 3 1 3 10 10 13 5 18 16 12 8 19 24 -1 8 -9 2 1 -2 3 1 -2 6 5 14 16 5 6 6 6 10 4 13 6 4 6 10 8 7
24 37 -5 -1 4 32 7 2 7 1 -2 1 20 6 6 12 14 11 11 18 26 10 7 138 -7 24 2 11 7 -9 -3 3 -3 10 21 13 13 15 13 1 -1 41 -4 16 11 7 11 10 9
11 20 -6 -1 1 2 4 3 -3 1 5 17 -4 1 4 6 10 16 4 17 19 10 6 13 4 85 1 20 -5 2 -3 1 -1 7 17 13 18 8 9 18 18 56 33 35 15 9 7 9 9
Height
5916 5917 5918 5919 5921 5915 5917 5918 5919 5918 5919 5918 5917 5917 5918 5919 5920 5921 5919 5919 5918 5917 5918 5919 5921 5921 5921 5920 5918 5916 5920 5924 5926 5927 5928 5931 5932 5932 5933 5933 5933 5933 5933 5932 5932 5932 5932 5932 5932
5917 5919 5922 5922 5923 5920 5921 5921 5920 5921 5922 5922 5920 5920 5920 5921 5921 5920 5921 5921 5920 5919 5920 5920 5921 5923 5922 5921 5921 5920 5924 5927 5930 5932 5933 5934 5935 5935 5936 5936 5936 5935 5936 5935 5935 5935 5934 5934 5934
5918 5924 5924 5926 5924 5922 5923 5923 5924 5926 5927 5924 5923 5924 5922 5923 5921 5922 5923 5922 5921 5922 5921 5920 5921 5924 5924 5925 5924 5925 5929 5931 5933 5935 5937 5937 5937 5938 5939 5939 5937 5937 5937 5937 5938 5937 5936 5936 5936
5924 5929 5924 5926 5923 5923 5923 5922 5924 5929 5928 5928 5927 5928 5926 5923 5923 5925 5924 5923 5922 5922 5921 5921 5922 5925 5927 5928 5928 5930 5933 5934 5937 5938 5938 5939 5940 5940 5940 5940 5938 5938 5938 5939 5939 5939 5938 5939 5938
5926 5926 5927 5924 5925 5925 5923 5927 5925 5928 5929 5928 5930 5933 5931 5926 5926 5926 5926 5925 5924 5924 5923 5922 5922 5926 5929 5931 5932 5935 5937 5938 5939 5940 5941 5942 5942 5941 5941 5940 5939 5940 5940 5940 5940 5941 5940 5940 5939
5931 5928 5928 5929 5929 5928 5930 5928 5927 5928 5929 5929 5930 5932 5932 5928 5927 5928 5927 5927 5928 5927 5927 5926 5926 5929 5933 5935 5936 5938 5939 5940 5942 5943 5944 5945 5944 5944 5942 5942 5941 5940 5941 5942 5941 5941 5943 5941 5941
5936 5933 5933 5936 5932 5930 5930 5930 5932 5931 5932 5932 5931 5933 5935 5931 5931 5930 5930 5931 5931 5931 5930 5930 5931 5933 5935 5937 5938 5940 5942 5943 5945 5947 5947 5946 5947 5946 5944 5943 5943 5942 5941 5941 5943 5943 5943 5942 5943
5938 5937 5937 5940 5936 5934 5931 5932 5934 5933 5935 5933 5933 5934 5936 5935 5935 5934 5934 5933 5932 5934 5933 5934 5935 5937 5939 5940 5942 5944 5946 5946 5948 5948 5949 5948 5948 5947 5946 5946 5945 5944 5943 5942 5942 5943 5944 5944 5945
5944 5943 5943 5941 5940 5936 5934 5937 5938 5937 5937 5936 5935 5935 5936 5936 5936 5936 5935 5936 5936 5937 5938 5939 5940 5941 5942 5944 5945 5947 5948 5949 5950 5950 5950 5950 5950 5948 5948 5947 5947 5946 5946 5944 5943 5944 5944 5943 5942
5948 5948 5948 5946 5945 5940 5939 5939 5941 5941 5939 5938 5936 5938 5938 5938 5936 5937 5939 5940 5941 5941 5942 5942 5943 5944 5945 5946 5948 5950 5951 5952 5952 5951 5951 5951 5951 5951 5950 5950 5949 5948 5948 5947 5945 5945 5944 5943 5941
5952 5949 5949 5947 5950 5946 5944 5943 5942 5941 5940 5939 5938 5939 5940 5941 5941 5941 5942 5942 5943 5943 5944 5945 5946 5947 5947 5949 5951 5953 5953 5953 5953 5953 5954 5953 5953 5952 5952 5953 5953 5951 5950 5950 5948 5947 5946 5945 5942
5961 5956 5953 5952 5953 5953 5949 5947 5945 5944 5945 5943 5942 5941 5942 5943 5945 5944 5944 5946 5946 5947 5946 5948 5949 5949 5950 5951 5952 5954 5954 5955 5955 5955 5955 5955 5955 5954 5955 5954 5955 5955 5953 5952 5950 5950 5949 5946 5945
5966 5964 5963 5957 5960 5960 5957 5952 5951 5951 5949 5946 5944 5944 5945 5945 5946 5946 5947 5947 5948 5949 5950 5951 5951 5952 5951 5952 5954 5955 5955 5957 5956 5956 5956 5957 5955 5956 5956 5956 5957 5958 5955 5954 5953 5952 5951 5950 5948
5971 5967 5965 5963 5963 5963 5961 5956 5953 5953 5951 5949 5948 5948 5947 5947 5948 5948 5949 5948 5951 5952 5952 5952 5952 5952 5952 5954 5956 5955 5955 5957 5958 5957 5958 5959 5959 5959 5957 5957 5958 5959 5958 5956 5955 5954 5955 5953 5950
5971 5970 5969 5968 5968 5966 5964 5959 5955 5956 5954 5954 5952 5952 5951 5950 5948 5948 5949 5950 5953 5954 5954 5954 5954 5955 5955 5956 5955 5955 5957 5958 5959 5960 5959 5960 5960 5960 5958 5957 5959 5959 5959 5958 5957 5957 5956 5955 5954
5971 5971 5971 5971 5971 5969 5966 5962 5960 5959 5959 5958 5956 5955 5953 5952 5950 5950 5950 5951 5953 5953 5953 5954 5954 5956 5957 5957 5957 5958 5959 5959 5959 5959 5960 5959 5959 5960 5959 5958 5959 5959 5959 5958 5956 5957 5957 5955 5954
5972 5973 5973 5972 5971 5971 5967 5965 5963 5962 5962 5961 5959 5958 5955 5954 5953 5953 5953 5954 5953 5952 5954 5954 5956 5956 5957 5957 5956 5957 5958 5959 5959 5959 5959 5960 5960 5959 5959 5959 5958 5958 5957 5957 5955 5955 5954 5954 5951
5975 5974 5975 5975 5974 5972 5968 5968 5967 5965 5965 5964 5962 5959 5958 5956 5955 5956 5955 5954 5954 5954 5955 5956 5955 5956 5956 5957 5957 5957 5957 5957 5959 5959 5959 5959 5958 5958 5958 5958 5957 5956 5955 5954 5953 5952 5951 5950 5949
5977 5975 5975 5976 5977 5975 5972 5972 5971 5969 5968 5966 5964 5963 5961 5960 5959 5958 5958 5958 5959 5959 5958 5957 5956 5956 5956 5957 5958 5958 5957 5957 5956 5957 5958 5957 5956 5957 5957 5957 5956 5954 5954 5954 5952 5951 5950 5949 5949
5978 5975 5975 5976 5976 5977 5972 5972 5971 5972 5970 5968 5967 5966 5966 5965 5964 5963 5962 5962 5962 5962 5960 5959 5959 5958 5957 5958 5957 5957 5957 5956 5955 5955 5956 5956 5957 5956 5956 5955 5954 5954 5952 5952 5951 5952 5951 5950 5949
5975 5975 5974 5975 5976 5976 5974 5972 5971 5972 5970 5968 5970 5970 5970 5969 5968 5967 5966 5965 5964 5965 5963 5962 5960 5959 5959 5959 5958 5957 5957 5956 5955 5954 5953 5954 5955 5954 5954 5953 5952 5952 5952 5950 5948 5948 5947 5947 5947
5973 5974 5974 5974 5973 5975 5973 5973 5972 5971 5970 5967 5971 5973 5973 5972 5972 5971 5970 5969 5967 5966 5965 5963 5962 5961 5960 5959 5959 5957 5956 5954 5953 5952 5951 5952 5953 5953 5953 5952 5952 5952 5950 5949 5947 5946 5945 5945 5944
5975 5973 5974 5975 5974 5975 5973 5972 5971 5971 5970 5968 5970 5972 5973 5970 5972 5973 5974 5972 5970 5969 5967 5965 5962 5960 5960 5959 5959 5958 5956 5954 5953 5951 5950 5950 5951 5952 5951 5951 5950 5949 5948 5947 5946 5944 5943 5943 5942
5973 5974 5975 5975 5975 5975 5972 5971 5969 5969 5970 5968 5970 5970 5972 5970 5967 5971 5967 5969 5972 5970 5969 5967 5964 5962 5960 5959 5959 5959 5958 5957 5955 5952 5950 5949 5949 5949 5948 5947 5946 5946 5945 5944 5943 5941 5940 5939 5940
5972 5972 5974 5974 5973 5973 5972 5970 5970 5971 5971 5969 5967 5969 5970 5968 5963 5964 5966 5962 5965 5969 5967 5967 5965 5963 5961 5959 5958 5958 5957 5956 5955 5953 5950 5947 5946 5945 5944 5943 5942 5941 5940 5939 5938 5937 5937 5936 5935
5971 5972 5972 5971 5970 5971 5970 5971 5971 5970 5970 5974 5963 5966 5967 5968 5968 5969 5966 5961 5964 5966 5966 5964 5963 5962 5961 5958 5956 5955 5954 5953 5952 5950 5948 5948 5946 5943 5940 5937 5935 5934 5933 5933 5932 5932 5933 5931 5931
5969 5972 5971 5970 5971 5970 5969 5970 5970 5971 5972 5975 5976 5966 5967 5966 5964 5959 5957 5953 5957 5961 5955 5955 5952 5954 5955 5955 5954 5952 5950 5948 5946 5946 5945 5943 5940 5938 5936 5932 5925 5922 5920 5923 5925 5926 5928 5926 5926
5968 5970 5970 5971 5970 5968 5968 5968 5967 5969 5970 5972 5974 5963 5961 5958 5955 5955 5954 5955 5957 5957 5954 5951 5934 5918 5947 5949 5949 5947 5944 5944 5942 5941 5939 5937 5935 5933 5929 5923 5922 5918 5916 5910 5914 5917 5921 5920 5920
5964 5966 5968 5968 5968 5967 5967 5968 5968 5968 5969 5969 5969 5963 5961 5959 5956 5953 5951 5949 5949 5949 5944 5930 5933 5898 5930 5936 5942 5943 5941 5938 5938 5938 5936 5932 5928 5925 5922 5919 5900 5895 5895 5904 5903 5908 5912 5912 5913
5960 5961 5963 5965 5965 5964 5964 5965 5965 5967 5967 5969 5967 5961 5958 5957 5955 5953 5949 5947 5944 5943 5940 5935 5929 5923 5932 5936 5937 5940 5937 5935 5934 5932 5929 5927 5924 5919 5917 5912 5905 5899 5896 5894 5891 5897 5902 5907 5907